STARLINK-36926, 67999

Orbit data source: Space-Track

STARLINK-36926, 67999 is a payload satellite owned by SpaceX/Seattle (US) in LEO that was launched on Fri, 27 Feb 2026 UTC via an FALCON 9 launch vehicle from the Air Force Eastern Test Range (AFETR). Payload-class satellites include a variety of spacecraft equipped with specific instruments for various scientific and technological missions. These include communications satellites like Starlink; space stations such as the ISS; scientific satellites like the Hubble; Earth observation satellites from companies like Planet Labs, Umbra, and HawkEye 360; GPS; miniature CubeSats for education and research; and military/defense satellites.

Loading next visibility...
Identifier
67999, 2026-039P
Orbit
LEO
Country
Flag of USUS
Related business
Manufacturer
SpaceX/Seattle
Mission
Operational Commercial Communications
Bus & Motor
STARLINK V2MO, Unknown motor
Mass
575 kg wet, ~530 kg dry
Launch date (UTC)
2026-02-27 (2 months ago)
Launch vehicle
FALCON 9
Launch site
Air Force Eastern Test Range (AFETR)
Object type
Payload
Rocket body
Debris
Shape & HBR
Box + 2 Pan, 17.7 m
Radar Cross Section
36.964 m²

Expand to show TLE details & history
Last TLE update: 6 hours ago

TLE from 6 hours ago
0 STARLINK-36926
1 67999U 26039P   26112.20849713  .00014298  00000-0  52797-3 0  9993
2 67999  42.9977 162.7575 0001299 218.1639 141.9121 15.27587305  8363
Epoch: 2026-04-22T05:00Z
TLE epoch observation values (Epoch: 2026-04-22T05:00:14.152Z)
Latitude
0.00002°
Longitude
-122.57467°
Altitude
483.504 km
Speed
7.625 km/s
True Right ascension
10h 51m 01s
True Declination
0° 00' 00"
Sunlit
Object was in full shadow at epoch
Visualization orbit readout
Latitude
Unknown
Longitude
Unknown
Altitude
Unknown
Speed
Unknown
Apparent Right ascension
Unknown
Apparent Declination
Unknown
Sunlit
N/A
Visualization observer readout
Local Sidereal Time
18:03:31
Azimuth
Unknown
Elevation
Unknown
Doppler factor
Unknown
Orbital elements
Apogee altitude
485.864 km
Perigee altitude
484.081 km
Semi-major axis
6,863.11 km
Eccentricity
0.00013
Inclination
42.9977°
RAAN
162.7575°
Arg. of periapsis
218.1639°
True anomaly
141.92128°
Mean anomaly
141.9121°
Eccentric anomaly
141.91669°
Mean motion
3.81735 °/min
Orbital period
94.31 mins
BSTAR
0.00052797
Loading maneuver chart data...
Computing Atmospheric mass density...
Loading historical data...
Loading historical data...
Loading historical data...
Loading historical data...
Loading historical data...
Loading historical data...
Loading historical data...

Documentation

Showing up to 5 results
|